Wind_Speed
16 15 14 14 13 12 11 10 9 8 7 7 6 5 5 4 3 3 2 2 2 3 3 3 4 4 5 5 6 6 7 7 8 9 9 10 11 11 11 12 12 13 13
18 17 16 15 14 14 13 12 11 10 9 8 8 7 7 5 5 4 4 4 3 3 4 4 4 5 6 6 7 8 8 8 9 9 10 11 11 12 12 12 13 13 14
20 19 17 17 16 15 15 14 13 13 11 10 9 9 8 7 7 6 5 5 5 5 4 4 5 5 6 7 8 8 8 9 9 10 11 11 12 12 13 14 14 14 15
22 21 20 19 17 16 16 16 15 15 13 12 11 10 10 9 8 7 6 6 5 5 5 5 6 6 7 8 9 9 9 10 10 11 12 12 13 14 14 15 15 16 16
24 23 22 21 20 18 17 17 17 16 15 13 13 12 11 11 10 8 8 7 6 6 6 6 7 8 8 9 10 10 11 11 12 12 13 14 14 15 15 16 16 17 17
25 24 24 22 22 20 19 19 18 17 16 15 14 14 13 11 11 10 9 8 8 8 8 8 8 9 10 10 11 11 12 12 13 14 14 15 15 16 17 17 18 18 19
27 26 25 24 23 22 21 20 20 19 18 17 16 15 14 13 12 11 11 10 9 9 10 10 10 10 11 11 12 12 13 14 14 15 15 16 17 18 19 19 19 20 21
28 27 26 25 24 24 23 22 21 21 20 19 18 17 16 15 14 13 12 12 11 11 11 11 11 11 12 12 13 14 14 15 16 16 17 17 18 19 20 20 21 22 23
29 29 28 27 26 25 25 24 23 22 22 21 20 19 18 17 16 15 14 13 13 12 12 12 12 13 13 14 15 15 16 16 17 17 18 19 20 21 22 22 23 24 25
30 30 29 28 27 27 27 26 25 24 24 23 22 21 20 18 18 16 15 15 14 14 14 14 14 14 15 15 16 16 17 17 18 19 20 20 21 22 23 24 25 25 25
30 30 29 29 29 28 28 28 27 26 26 25 24 23 22 20 20 19 17 17 16 16 16 16 16 16 16 17 17 17 18 18 19 20 21 22 23 24 25 25 26 26 27
30 30 31 30 30 30 30 29 29 28 27 27 26 25 24 23 22 21 20 19 18 18 18 18 18 18 18 18 19 19 20 20 21 22 23 24 25 26 27 27 27 27 28
30 30 31 31 31 31 31 31 30 29 29 29 28 28 26 25 24 23 22 21 20 20 20 20 20 20 21 21 21 21 22 22 23 24 25 26 27 27 28 28 28 29 29
32 31 31 32 32 32 32 32 31 30 30 31 30 29 29 27 26 25 24 23 23 22 22 22 22 22 22 22 22 23 23 24 25 26 27 27 28 28 29 29 30 30 30
34 33 32 32 33 33 33 33 33 33 32 32 32 31 31 30 28 27 26 25 25 24 25 25 24 23 23 24 24 24 24 25 27 28 28 29 29 29 30 30 31 31 31
36 36 34 33 34 35 36 35 34 34 33 33 33 32 32 32 31 30 29 28 27 27 27 26 25 25 25 25 25 25 26 28 28 29 30 30 30 30 31 31 31 31 32
38 37 37 36 35 36 36 36 36 36 35 34 34 34 34 34 33 32 31 30 29 29 29 28 28 28 27 27 27 27 29 30 30 30 31 32 31 31 32 32 32 32 33
38 39 39 38 37 37 36 36 37 37 36 36 35 35 35 35 35 33 33 32 32 31 30 31 30 30 29 29 29 29 30 31 31 31 31 31 32 32 33 33 34 34 34
39 39 41 40 38 39 38 37 36 38 38 38 37 37 36 36 37 36 34 34 34 33 32 32 33 32 31 31 31 31 31 31 31 31 32 32 32 33 33 34 34 35 35
41 41 41 42 41 41 40 39 38 39 39 39 39 39 38 37 37 37 37 36 36 36 36 35 34 34 33 33 32 32 32 31 31 32 32 32 33 33 34 34 35 36 37
44 43 42 43 41 42 41 41 42 40 40 40 40 40 40 39 38 38 38 37 37 37 37 37 37 35 34 34 34 33 33 32 32 32 32 33 34 34 35 36 37 38 39
44 43 43 43 42 42 43 42 42 42 41 41 41 42 42 42 40 39 39 39 38 38 38 38 38 38 37 35 35 34 33 33 33 33 34 35 35 35 36 37 38 39 40
44 44 43 43 44 44 44 44 43 41 41 42 41 42 42 42 43 42 41 40 39 38 38 38 39 40 39 37 36 35 35 34 33 34 35 35 36 37 38 39 40 42 43
44 45 45 46 46 46 45 44 44 43 42 42 41 40 41 42 43 42 41 41 40 40 39 39 39 39 39 39 38 37 37 36 36 35 36 37 37 38 40 41 42 44 45
45 45 46 46 46 46 47 46 45 44 44 43 43 42 42 42 43 43 43 42 40 40 40 40 39 39 40 40 39 39 38 37 37 37 37 38 39 40 42 43 44 45 45
45 47 47 47 47 47 47 46 46 45 46 45 44 45 44 43 43 43 43 42 41 41 40 40 39 38 38 38 39 39 39 39 39 39 39 39 40 42 44 44 45 45 44
Wind_Direction
225 224 224 224 224 224 225 224 225 227 230 233 235 240 245 248 253 256 259 274 291 309 326 333 338 342 339 337 335 334 334 332 330 331 332 332 331 329 330 330 329 328 326
227 226 226 227 228 228 228 227 228 229 230 234 237 241 245 248 249 251 260 271 282 301 314 320 327 331 332 331 329 327 326 325 325 325 325 326 326 327 327 327 326 325 324
230 229 227 228 229 230 229 230 230 231 232 234 238 243 244 246 248 251 262 272 283 295 303 312 321 324 326 326 325 324 322 321 322 323 323 324 325 325 324 324 323 322 321
232 231 230 229 229 230 230 231 232 234 234 235 236 241 244 245 248 250 259 271 283 291 298 306 312 316 319 320 319 320 318 318 319 320 321 321 322 321 321 321 320 320 319
231 231 231 230 231 231 232 232 233 233 234 236 238 240 242 245 247 250 258 268 277 285 292 300 308 310 312 314 315 316 315 315 316 317 319 319 318 318 318 318 318 318 318
231 232 231 231 232 233 233 233 234 234 235 236 238 240 240 243 248 253 259 267 274 279 286 294 301 306 309 310 310 311 312 312 312 314 315 316 316 316 316 316 316 316 316
232 232 232 232 233 234 235 235 236 238 237 236 236 239 241 242 247 254 261 266 273 279 282 289 296 300 305 307 306 307 309 309 310 311 312 313 314 315 315 315 314 314 314
231 232 233 234 234 235 235 236 237 237 235 236 237 238 241 242 245 250 258 265 270 277 283 285 291 298 302 304 303 305 307 307 308 310 310 310 312 314 314 313 313 313 312
232 232 234 235 236 236 236 236 237 236 236 236 238 240 242 244 245 249 255 261 268 274 280 285 290 295 299 301 303 304 305 305 306 307 308 309 310 311 312 311 312 311 311
233 233 234 236 236 237 237 236 236 237 237 237 238 239 242 244 246 248 253 259 264 271 278 282 288 293 297 299 301 303 303 303 305 306 306 307 308 309 309 310 310 309 309
233 234 235 237 236 237 237 237 237 238 238 238 239 240 241 244 246 248 253 257 263 268 274 278 283 290 294 297 299 299 301 302 303 304 305 305 306 307 308 309 309 308 308
234 235 236 237 237 237 237 237 237 238 240 240 240 241 242 244 246 248 252 257 262 266 270 276 281 285 290 294 296 298 299 300 301 303 304 304 305 306 307 307 307 307 307
233 234 236 236 237 238 237 237 238 239 240 242 242 242 244 246 247 249 253 257 261 264 268 274 280 283 287 290 292 295 298 299 300 301 301 302 304 305 306 306 305 306 306
233 234 235 236 237 239 238 238 239 241 243 243 243 244 245 246 248 249 253 257 260 262 266 270 277 282 286 287 289 292 295 298 300 301 300 302 303 304 304 304 304 304 304
234 234 236 237 237 238 237 238 239 241 243 244 245 245 245 246 248 249 252 255 259 262 265 269 275 280 284 286 288 290 293 296 298 300 301 302 302 303 303 304 304 303 303
234 235 235 236 237 238 238 239 241 242 243 245 245 246 246 246 248 249 253 256 258 261 265 268 274 277 282 284 287 290 293 295 298 299 300 300 300 301 302 304 304 304 303
235 236 236 236 237 237 238 240 242 242 243 245 245 246 247 247 248 250 251 254 257 261 264 267 272 276 279 282 285 288 292 294 296 298 299 299 300 300 301 302 302 302 302
236 237 236 237 238 237 238 240 241 242 245 246 246 247 247 247 248 250 252 254 256 260 263 266 270 275 277 280 283 287 290 293 296 296 297 298 299 299 301 301 301 301 302
237 236 236 237 238 237 238 241 242 243 245 246 247 248 248 248 249 251 253 255 257 259 262 265 268 272 276 279 283 286 289 292 295 296 297 298 299 299 300 300 301 301 302
237 235 236 236 237 238 239 240 243 244 245 246 249 248 249 250 250 251 254 256 258 260 262 265 268 271 275 279 282 285 288 290 292 295 297 298 299 299 299 300 302 302 303
236 236 236 236 236 239 241 242 244 246 247 248 248 248 249 250 251 253 255 257 258 260 263 266 270 272 275 278 280 283 286 288 290 292 294 297 299 299 299 300 301 302 303
233 234 236 236 238 239 241 244 247 249 248 248 249 248 249 251 252 254 255 256 258 261 263 266 270 272 275 277 279 281 284 285 287 290 293 295 297 298 298 300 301 303 303
233 234 236 238 239 241 241 243 246 250 250 248 250 250 250 251 253 253 255 257 258 261 265 267 270 272 274 276 279 281 283 284 286 290 291 293 295 295 297 299 300 301 302
235 237 239 240 241 242 243 243 246 247 248 248 250 251 250 251 253 254 254 257 259 261 264 267 270 273 274 276 278 281 283 285 286 287 290 291 294 296 296 297 299 301 301
236 237 239 240 242 244 245 246 246 246 247 249 250 250 251 252 253 254 255 257 260 262 264 267 271 273 275 276 277 280 282 284 286 288 289 291 293 295 296 297 298 300 300
239 239 240 242 244 245 246 246 247 246 247 249 249 250 250 252 253 255 256 257 259 262 264 266 269 272 275 275 277 279 282 284 285 288 290 291 293 295 296 297 298 299 301
Height
5863 5864 5866 5867 5868 5869 5870 5871 5872 5872 5873 5874 5874 5874 5874 5874 5874 5874 5874 5873 5873 5872 5871 5871 5870 5869 5868 5867 5866 5865 5864 5863 5862 5860 5859 5858 5857 5855 5854 5852 5851 5849 5848
5861 5862 5863 5865 5866 5867 5868 5869 5870 5871 5872 5872 5873 5873 5873 5873 5873 5873 5873 5873 5872 5871 5871 5870 5869 5868 5867 5866 5865 5864 5863 5862 5861 5860 5858 5857 5855 5854 5852 5851 5849 5848 5846
5858 5860 5861 5862 5864 5865 5866 5867 5868 5869 5870 5871 5872 5872 5872 5872 5872 5872 5872 5872 5871 5870 5870 5869 5868 5868 5867 5866 5864 5863 5862 5861 5859 5858 5857 5855 5854 5852 5851 5849 5847 5846 5844
5854 5856 5858 5859 5861 5862 5864 5865 5866 5867 5868 5869 5870 5870 5871 5871 5871 5871 5871 5870 5870 5869 5869 5868 5867 5866 5866 5865 5863 5862 5861 5859 5858 5857 5855 5854 5852 5851 5849 5847 5845 5843 5841
5850 5852 5854 5856 5858 5860 5861 5863 5864 5865 5866 5867 5868 5868 5869 5869 5869 5869 5869 5869 5868 5868 5867 5867 5866 5865 5864 5863 5862 5861 5859 5858 5857 5855 5853 5852 5850 5848 5847 5845 5843 5841 5839
5846 5848 5850 5852 5854 5856 5858 5860 5861 5862 5863 5864 5865 5866 5867 5867 5867 5867 5867 5867 5867 5866 5866 5865 5864 5863 5863 5861 5860 5859 5857 5856 5855 5853 5851 5850 5848 5846 5844 5842 5840 5838 5836
5841 5843 5846 5848 5850 5852 5854 5856 5858 5859 5860 5862 5863 5864 5864 5864 5865 5865 5865 5865 5865 5864 5864 5863 5862 5862 5860 5859 5858 5857 5855 5854 5852 5851 5849 5847 5845 5843 5841 5839 5837 5835 5833
5836 5839 5841 5843 5845 5848 5850 5852 5854 5855 5857 5858 5859 5860 5861 5861 5862 5862 5863 5862 5862 5862 5861 5861 5860 5859 5858 5857 5856 5854 5853 5851 5850 5848 5846 5845 5843 5840 5838 5836 5834 5832 5829
5831 5834 5836 5838 5841 5843 5845 5847 5849 5851 5853 5854 5856 5857 5857 5858 5859 5859 5860 5860 5860 5859 5859 5858 5857 5857 5856 5854 5853 5851 5850 5848 5847 5845 5844 5842 5839 5837 5835 5833 5830 5828 5825
5826 5829 5831 5834 5836 5838 5840 5843 5845 5847 5849 5850 5852 5853 5853 5854 5855 5856 5856 5857 5856 5856 5856 5855 5854 5854 5853 5851 5850 5848 5847 5845 5844 5842 5840 5838 5836 5834 5831 5829 5826 5824 5821
5820 5823 5826 5828 5831 5833 5835 5837 5840 5842 5844 5846 5847 5848 5849 5850 5851 5852 5853 5853 5853 5853 5852 5852 5851 5850 5849 5848 5846 5845 5844 5842 5840 5838 5836 5834 5832 5830 5827 5824 5822 5819 5816
5815 5818 5821 5823 5825 5827 5830 5832 5834 5837 5839 5840 5842 5843 5845 5846 5847 5848 5848 5849 5849 5849 5849 5848 5847 5847 5846 5844 5843 5841 5840 5838 5836 5834 5832 5830 5828 5825 5822 5820 5817 5814 5811
5809 5812 5815 5817 5819 5822 5824 5827 5829 5831 5833 5835 5836 5838 5840 5841 5842 5843 5844 5844 5845 5845 5844 5844 5843 5842 5842 5840 5839 5837 5836 5834 5832 5830 5828 5825 5823 5820 5817 5814 5812 5809 5806
5802 5805 5808 5811 5814 5816 5818 5821 5823 5825 5827 5829 5830 5832 5834 5836 5837 5838 5839 5839 5840 5840 5840 5839 5839 5838 5837 5836 5834 5833 5831 5829 5827 5825 5823 5820 5817 5815 5812 5809 5806 5803 5800
5796 5799 5801 5804 5807 5809 5812 5814 5817 5819 5820 5822 5824 5826 5828 5830 5831 5833 5833 5834 5835 5835 5835 5834 5834 5833 5832 5831 5829 5828 5826 5824 5822 5820 5817 5815 5812 5809 5806 5803 5800 5797 5794
5788 5791 5794 5797 5800 5803 5806 5808 5810 5812 5814 5816 5818 5820 5821 5823 5825 5826 5827 5828 5829 5829 5829 5829 5828 5828 5827 5826 5824 5823 5821 5819 5816 5814 5811 5809 5806 5803 5800 5797 5794 5791 5788
5780 5783 5787 5790 5793 5796 5799 5801 5803 5805 5808 5809 5811 5813 5814 5816 5818 5819 5821 5822 5823 5823 5823 5823 5822 5822 5821 5820 5818 5817 5815 5813 5810 5808 5805 5802 5800 5797 5794 5791 5787 5784 5781
5772 5776 5779 5783 5786 5788 5791 5793 5796 5798 5800 5802 5804 5806 5807 5809 5811 5812 5813 5815 5816 5816 5816 5816 5816 5815 5814 5813 5812 5810 5808 5806 5804 5801 5799 5796 5793 5790 5787 5784 5781 5777 5774
5764 5767 5771 5774 5778 5781 5784 5786 5788 5790 5793 5795 5796 5798 5799 5801 5802 5804 5806 5807 5808 5809 5809 5809 5809 5808 5808 5807 5805 5804 5802 5800 5797 5794 5792 5789 5786 5783 5780 5777 5774 5770 5766
5755 5759 5762 5766 5769 5772 5775 5778 5780 5782 5784 5786 5788 5790 5792 5793 5794 5796 5798 5799 5800 5801 5801 5801 5801 5801 5800 5799 5798 5797 5795 5793 5791 5788 5785 5783 5780 5777 5773 5770 5767 5763 5759
5746 5750 5753 5757 5760 5763 5766 5769 5772 5774 5776 5778 5779 5781 5783 5784 5786 5788 5790 5791 5792 5793 5793 5793 5793 5793 5792 5792 5791 5790 5788 5786 5784 5781 5779 5776 5773 5770 5766 5763 5759 5756 5752
5737 5741 5745 5749 5752 5755 5758 5760 5762 5765 5767 5769 5770 5772 5774 5776 5778 5779 5781 5783 5784 5784 5785 5785 5785 5785 5784 5784 5783 5782 5781 5780 5777 5774 5772 5769 5766 5762 5759 5755 5751 5747 5743
5729 5733 5737 5740 5743 5746 5748 5751 5753 5755 5757 5759 5761 5762 5765 5767 5769 5770 5772 5774 5775 5776 5776 5777 5777 5777 5776 5776 5775 5774 5772 5771 5770 5767 5764 5761 5758 5754 5751 5747 5743 5738 5734
5721 5724 5728 5731 5734 5736 5739 5741 5743 5746 5748 5750 5752 5754 5755 5757 5759 5761 5763 5765 5766 5767 5768 5768 5768 5768 5768 5767 5767 5765 5764 5762 5761 5759 5757 5753 5749 5746 5742 5738 5733 5729 5724
5711 5714 5718 5721 5724 5726 5728 5731 5733 5736 5739 5741 5743 5744 5746 5748 5750 5752 5754 5755 5757 5758 5759 5759 5759 5759 5759 5759 5758 5757 5756 5754 5752 5750 5748 5745 5741 5737 5732 5728 5724 5719 5714
5701 5705 5708 5711 5713 5715 5718 5721 5723 5726 5728 5731 5733 5735 5736 5738 5741 5742 5744 5746 5747 5749 5749 5750 5750 5750 5750 5750 5749 5748 5747 5745 5744 5741 5739 5736 5732 5728 5723 5718 5713 5709 5704